Domov               UVHVVR             MKGP            O straneh              
ZDRAVSTVENO VARSTVO RASTLIN
  MREŽA AGROMET. POSTAJ
 ► PROGNOSTIČNA OBVESTILA
AGROMETEOROLOŠKI PODATKI -
ARSO
OBVLADOVANJE TVEGANJ ZARADI
NEUGODNIH VREMENSKIH RAZMER
  ► NARAVNE NESREČE
  ► SUŠA/MOČA
  ► NAMAKANJE
  ► ŽLED (gozdarstvo)
KARTOGRAFSKI PRIKAZI
SPLETNE POVEZAVE
PROJEKTI IN PUBLIKACIJE

AGROMETEOROLOŠKA MREŽA: VREMENSKE POSTAJE IN FENOLOŠKA OPAZOVANJA

Pregled podatkov za lokacijo Slovenske Konjice, meteorološka postaja 37885

Pregled senzorjev na lokaciji

ID Ime Zadnja
vrednost
Datum
zadnje
spremembe
Tip
senzorja
4060 Temperatura 2 m ( °C) 9,87 °C 23.8.2017 05:00 50YA
4061 Relativna vlaga 2 m (% RH) 94,07 % RH 23.8.2017 05:00 50YA
4062 Padavine 0.2 mm (mm) 0 mm 23.8.2017 05:00 Rain-O-Matic
4063 Omočenost lista (U) 3 U 23.8.2017 05:00 A730WET

Pregled podatkov zadnjih 24 ur

Zap.
št.
Datum in čas Slovenske Konjice
Omočenost
lista
Padavine
0.2
mm
Relativna
vlaga
2
m
Temperatura
2
m
0 23.8.2017 04:00 3 0 94,07 9,87
1 23.8.2017 03:30 1 0 93,8 9,72
2 23.8.2017 03:00 0 0 89,91 10,38
3 23.8.2017 02:30 0 0 85,1 11,43
4 23.8.2017 02:00 0 0 86,59 11,23
5 23.8.2017 01:30 0 0 86,25 11,11
6 23.8.2017 01:00 0 0 86,57 11,01
7 23.8.2017 00:30 0 0 85,86 11,09
8 23.8.2017 00:00 0 0 81,86 11,89
9 22.8.2017 23:30 0 0 80,9 11,99
10 22.8.2017 23:00 0 0 79,17 12,48
11 22.8.2017 22:30 0 0 80,46 12,5
12 22.8.2017 22:00 0 0 78,02 12,82
13 22.8.2017 21:30 0 0 75,56 13,38
14 22.8.2017 21:00 0 0 73,41 13,68
15 22.8.2017 20:30 0 0 72,53 13,92
16 22.8.2017 20:00 0 0 71,31 14,43
17 22.8.2017 19:30 0 0 71,18 14,95
18 22.8.2017 19:00 0 0 61,78 17,14
19 22.8.2017 18:30 0 0 56,7 18,41
20 22.8.2017 18:00 0 0 51,4 19,88
21 22.8.2017 17:30 0 0 50,45 20,76
22 22.8.2017 17:00 0 0 48,57 21,93
23 22.8.2017 16:30 0 0 45,98 22,56
24 22.8.2017 16:00 0 0 44,71 22,66
25 22.8.2017 15:30 0 0 42,25 23,25
26 22.8.2017 15:00 0 0 43,76 22,88
27 22.8.2017 14:30 0 0 45,15 22,47
28 22.8.2017 14:00 0 0 45,42 22,1
29 22.8.2017 13:30 0 0 46,11 22,08
30 22.8.2017 13:00 0 0 45,57 22
31 22.8.2017 12:30 0 0 45,98 22,12
32 22.8.2017 12:00 0 0 45,57 21,78
33 22.8.2017 11:30 0 0 46,28 21,44
34 22.8.2017 11:00 0 0 46,45 21,05
35 22.8.2017 10:30 0 0 46,5 21,17
36 22.8.2017 10:00 0 0 48,6 20,49
37 22.8.2017 09:30 0 0 47,72 20,54
38 22.8.2017 09:00 0 0 50,82 20,12
39 22.8.2017 08:30 0 0 54,95 19,27
40 22.8.2017 08:00 0 0 58,02 17,8
41 22.8.2017 07:30 0 0 61,73 16,17
42 22.8.2017 07:00 0 0 67,01 14,58
43 22.8.2017 06:30 4 0 73,41 12,48
© 2011 Ministrstvo za kmetijstvo, gozdarstvo in prehrano. Vse pravice pridržane.